Project,Study,Ord_Occ,Event_Num,Date_Time_UTC,Date_Time_PST,Lat_Dec,Lon_Dec,Sta_ID,Line,Sta,Depth,Pressure,Temp0,Temp1,Salt0,CorrSalt0,Salt1,CorrSalt1,O2ml/L,AveCorrO2ml/L,StaCorrO2ml/L,FluorV,AveEstChl,StaEstChl,ISUSV,AveEstNO3,StaEstNO3,SigThetaTS0,SigThetaTS1,BAT,XMiss,SPAR,PAR,BTL_Depth,BTL_Temp,BTL_Salt,BTL_O2ml/L,BTL_Chl,BTL_Pha,BTL_NO3
CalCOFI,0701JD,067,665,28-Jan-2007 7:46:53 PM,28-Jan-2007 11:46:53 AM,35.08248,-120.77918,076.7 049.0,076.7,049.0,65.000,65.484,12.1120,12.1137,33.6381,33.6368,33.6363,33.6364,3.87571,4.69,4.68,0.1410,0.37,0.55,0.8218,13.63,10.152,25.5118,25.5101,0.6997,83.9529,3.9575e+00,6.1745e-01,65,12.09 ,33.638, 4.64,.44,.51,10.3
CalCOFI,0701JD,067,665,28-Jan-2007 7:47:21 PM,28-Jan-2007 11:47:21 AM,35.08248,-120.77918,076.7 049.0,076.7,049.0,64.000,64.476,12.1005,12.0994,33.6391,33.6378,33.6375,33.6376,3.88104,4.70,4.69,0.1205,0.31,0.78,0.8352,14.02,10.525,25.5148,25.5137,0.7077,83.7839,4.1909e+00,6.5760e-01,,,,,,,
CalCOFI,0701JD,067,665,28-Jan-2007 7:47:22 PM,28-Jan-2007 11:47:22 AM,35.08237,-120.77918,076.7 049.0,076.7,049.0,63.000,63.468,12.1082,12.1067,33.6384,33.6371,33.6369,33.6370,3.90109,4.72,4.71,0.1153,0.30,0.87,0.8214,13.62,10.140,25.5127,25.5118,0.7067,83.8058,3.8473e+00,7.1799e-01,,,,,,,
CalCOFI,0701JD,067,665,28-Jan-2007 7:47:24 PM,28-Jan-2007 11:47:24 AM,35.08232,-120.77918,076.7 049.0,076.7,049.0,62.000,62.461,12.1415,12.1420,33.6360,33.6347,33.6336,33.6337,3.92102,4.75,4.74,0.1216,0.31,0.76,0.8172,13.50,10.023,25.5046,25.5026,0.6980,83.9881,4.2275e+00,7.8883e-01,,,,,,,
CalCOFI,0701JD,067,665,28-Jan-2007 7:47:25 PM,28-Jan-2007 11:47:25 AM,35.08232,-120.77918,076.7 049.0,076.7,049.0,61.000,61.453,12.1551,12.1546,33.6347,33.6334,33.6330,33.6331,3.95216,4.78,4.78,0.1158,0.30,0.86,0.8090,13.26,9.795,25.5009,25.4997,0.6938,84.0752,3.8298e+00,8.6048e-01,,,,,,,
CalCOFI,0701JD,067,665,28-Jan-2007 7:47:26 PM,28-Jan-2007 11:47:26 AM,35.08232,-120.77918,076.7 049.0,076.7,049.0,60.000,60.446,12.1746,12.1749,33.6331,33.6318,33.6311,33.6312,3.96670,4.80,4.79,0.1203,0.31,0.78,0.8085,13.24,9.781,25.4959,25.4943,0.6913,84.1280,3.2824e+00,9.3666e-01,,,,,,,
CalCOFI,0701JD,067,665,28-Jan-2007 7:47:27 PM,28-Jan-2007 11:47:27 AM,35.08232,-120.77918,076.7 049.0,076.7,049.0,59.000,59.438,12.1945,12.1946,33.6307,33.6294,33.6289,33.6290,3.98106,4.82,4.81,0.1432,0.38,0.54,0.7838,12.52,9.092,25.4902,25.4889,0.7221,83.4825,4.0946e+00,1.0336e+00,,,,,,,
CalCOFI,0701JD,067,665,28-Jan-2007 7:47:28 PM,28-Jan-2007 11:47:28 AM,35.08232,-120.77918,076.7 049.0,076.7,049.0,58.000,58.431,12.1919,12.1926,33.6310,33.6297,33.6294,33.6295,3.99889,4.84,4.83,0.1590,0.43,0.53,0.7710,12.14,8.735,25.4910,25.4896,0.7290,83.3385,3.9898e+00,1.1570e+00,,,,,,,
CalCOFI,0701JD,067,665,28-Jan-2007 7:47:29 PM,28-Jan-2007 11:47:29 AM,35.08232,-120.77918,076.7 049.0,076.7,049.0,57.000,57.423,12.2018,12.2029,33.6299,33.6286,33.6280,33.6281,4.01739,4.86,4.86,0.1398,0.37,0.56,0.7825,12.48,9.055,25.4882,25.4865,0.7345,83.2239,4.0772e+00,1.3137e+00,,,,,,,
CalCOFI,0701JD,067,665,28-Jan-2007 7:47:31 PM,28-Jan-2007 11:47:31 AM,35.08232,-120.77918,076.7 049.0,076.7,049.0,56.000,56.415,12.2057,12.2053,33.6292,33.6279,33.6276,33.6277,4.03616,4.89,4.88,0.1761,0.48,0.67,0.7863,12.59,9.161,25.4869,25.4857,0.7490,82.9246,3.8938e+00,1.4904e+00,,,,,,,
CalCOFI,0701JD,067,665,28-Jan-2007 7:47:32 PM,28-Jan-2007 11:47:32 AM,35.08232,-120.77918,076.7 049.0,076.7,049.0,55.000,55.408,12.2097,12.2102,33.6285,33.6272,33.6268,33.6269,4.05535,4.91,4.90,0.1418,0.38,0.55,0.7888,12.66,9.231,25.4856,25.4841,0.7557,82.7853,4.1889e+00,1.6856e+00,,,,,,,
CalCOFI,0701JD,067,665,28-Jan-2007 7:47:33 PM,28-Jan-2007 11:47:33 AM,35.08232,-120.77918,076.7 049.0,076.7,049.0,54.000,54.400,12.2127,12.2129,33.6281,33.6268,33.6265,33.6266,4.07010,4.93,4.92,0.1372,0.36,0.58,0.7678,12.05,8.645,25.4847,25.4833,0.7574,82.7502,4.1346e+00,1.9158e+00,,,,,,,
CalCOFI,0701JD,067,665,28-Jan-2007 7:47:34 PM,28-Jan-2007 11:47:34 AM,35.08232,-120.77918,076.7 049.0,076.7,049.0,53.000,53.393,12.2179,12.2184,33.6273,33.6260,33.6256,33.6257,4.07282,4.93,4.92,0.1437,0.38,0.54,0.7521,11.58,8.207,25.4830,25.4816,0.7636,82.6217,3.6637e+00,2.1956e+00,,,,,,,
CalCOFI,0701JD,067,665,28-Jan-2007 7:47:37 PM,28-Jan-2007 11:47:37 AM,35.08232,-120.77918,076.7 049.0,076.7,049.0,52.000,52.385,12.2098,12.2121,33.6279,33.6266,33.6262,33.6263,4.05621,4.91,4.90,0.1388,0.37,0.57,0.7830,12.49,9.069,25.4850,25.4833,0.7632,82.6301,3.8869e+00,2.5707e+00,,,,,,,
CalCOFI,0701JD,067,665,28-Jan-2007 7:47:42 PM,28-Jan-2007 11:47:42 AM,35.08232,-120.77918,076.7 049.0,076.7,049.0,51.000,51.378,12.2010,12.2049,33.6289,33.6276,33.6270,33.6271,4.04510,4.90,4.89,0.1475,0.39,0.53,0.7878,12.63,9.203,25.4875,25.4852,0.7603,82.6899,3.6920e+00,2.9290e+00,51,12.22 ,33.626, 4.92,.55,.46,9.0
CalCOFI,0701JD,067,665,28-Jan-2007 7:48:07 PM,28-Jan-2007 11:48:07 AM,35.08232,-120.77918,076.7 049.0,076.7,049.0,50.000,50.370,12.2212,12.2224,33.6277,33.6264,33.6260,33.6261,4.06756,4.92,4.92,0.1531,0.41,0.52,0.8056,13.16,9.700,25.4826,25.4811,0.7085,83.7721,4.0496e+00,3.3993e+00,,,,,,,
CalCOFI,0701JD,067,665,28-Jan-2007 7:48:37 PM,28-Jan-2007 11:48:37 AM,35.08232,-120.77918,076.7 049.0,076.7,049.0,49.000,49.363,12.2395,12.2424,33.6269,33.6256,33.6248,33.6249,4.08727,4.95,4.94,0.1407,0.37,0.55,0.7792,12.38,8.963,25.4785,25.4763,0.6423,85.1665,3.9824e+00,3.9239e+00,,,,,,,
CalCOFI,0701JD,067,665,28-Jan-2007 7:48:39 PM,28-Jan-2007 11:48:39 AM,35.08232,-120.77918,076.7 049.0,076.7,049.0,48.000,48.355,12.2458,12.2457,33.6265,33.6252,33.6250,33.6251,4.09049,4.95,4.95,0.1401,0.37,0.56,0.7942,12.82,9.382,25.4769,25.4758,0.6295,85.4387,4.2809e+00,4.4037e+00,,,,,,,
CalCOFI,0701JD,067,665,28-Jan-2007 7:48:40 PM,28-Jan-2007 11:48:40 AM,35.08232,-120.77918,076.7 049.0,076.7,049.0,47.000,47.348,12.2477,12.2484,33.6262,33.6249,33.6245,33.6246,4.10062,4.96,4.96,0.1655,0.45,0.57,0.7540,11.64,8.260,25.4763,25.4749,0.6268,85.4960,3.9261e+00,4.8838e+00,,,,,,,
CalCOFI,0701JD,067,665,28-Jan-2007 7:48:42 PM,28-Jan-2007 11:48:42 AM,35.08232,-120.77918,076.7 049.0,076.7,049.0,46.000,46.340,12.2492,12.2496,33.6253,33.6240,33.6238,33.6239,4.09170,4.95,4.95,0.1348,0.35,0.60,0.7842,12.53,9.103,25.4753,25.4741,0.6343,85.3353,4.3600e+00,5.3805e+00,,,,,,,
CalCOFI,0701JD,067,665,28-Jan-2007 7:48:43 PM,28-Jan-2007 11:48:43 AM,35.08232,-120.77918,076.7 049.0,076.7,049.0,45.000,45.333,12.2544,12.2545,33.6256,33.6243,33.6236,33.6237,4.09045,4.95,4.95,0.1562,0.42,0.52,0.7718,12.16,8.757,25.4745,25.4730,0.6399,85.2171,3.7225e+00,5.9812e+00,,,,,,,
CalCOFI,0701JD,067,665,28-Jan-2007 7:48:44 PM,28-Jan-2007 11:48:44 AM,35.08232,-120.77918,076.7 049.0,076.7,049.0,44.000,44.325,12.2784,12.2773,33.6251,33.6238,33.6233,33.6234,4.08607,4.95,4.94,0.1579,0.43,0.53,0.7803,12.41,8.994,25.4695,25.4684,0.6212,85.6154,3.9567e+00,6.6925e+00,,,,,,,
CalCOFI,0701JD,067,665,28-Jan-2007 7:48:47 PM,28-Jan-2007 11:48:47 AM,35.08232,-120.77918,076.7 049.0,076.7,049.0,43.000,43.318,12.2746,12.2747,33.6249,33.6236,33.6236,33.6237,4.07964,4.94,4.93,0.1674,0.46,0.58,0.7498,11.52,8.143,25.4701,25.4691,0.6016,86.0361,4.2987e+00,7.3151e+00,,,,,,,
CalCOFI,0701JD,067,665,28-Jan-2007 7:48:48 PM,28-Jan-2007 11:48:48 AM,35.08232,-120.77918,076.7 049.0,076.7,049.0,42.000,42.310,12.2907,12.2904,33.6251,33.6238,33.6230,33.6231,4.08243,4.94,4.94,0.1312,0.34,0.63,0.7807,12.42,9.005,25.4671,25.4656,0.5729,86.6574,3.9533e+00,7.8184e+00,,,,,,,
CalCOFI,0701JD,067,665,28-Jan-2007 7:48:50 PM,28-Jan-2007 11:48:50 AM,35.08232,-120.77918,076.7 049.0,076.7,049.0,41.000,41.303,12.3107,12.3117,33.6241,33.6228,33.6222,33.6223,4.08074,4.94,4.93,0.1320,0.35,0.63,0.7605,11.83,8.442,25.4625,25.4608,0.5513,87.1246,3.8865e+00,8.3972e+00,41,12.30 ,33.622, 4.93,.52,.38,8.7
CalCOFI,0701JD,067,665,28-Jan-2007 7:49:19 PM,28-Jan-2007 11:49:19 AM,35.08232,-120.77918,076.7 049.0,076.7,049.0,40.000,40.295,12.3341,12.3348,33.6220,33.6207,33.6204,33.6205,4.11876,4.99,4.98,0.1763,0.48,0.67,0.7647,11.95,8.559,25.4564,25.4550,0.5517,87.1162,3.9775e+00,1.0050e+01,,,,,,,
CalCOFI,0701JD,067,665,28-Jan-2007 7:49:37 PM,28-Jan-2007 11:49:37 AM,35.08232,-120.77918,076.7 049.0,076.7,049.0,39.000,39.288,12.3610,12.3628,33.6214,33.6201,33.6186,33.6187,4.18718,5.07,5.07,0.1393,0.37,0.56,0.7389,11.20,7.839,25.4507,25.4482,0.5461,87.2383,4.1492e+00,1.1452e+01,,,,,,,
CalCOFI,0701JD,067,665,28-Jan-2007 7:49:37 PM,28-Jan-2007 11:49:37 AM,35.08232,-120.77918,076.7 049.0,076.7,049.0,38.000,38.280,12.4315,12.4322,33.6181,33.6168,33.6147,33.6148,4.21896,5.11,5.11,0.1710,0.47,0.61,0.7294,10.92,7.574,25.4346,25.4318,0.5299,87.5915,3.9943e+00,1.2312e+01,,,,,,,
CalCOFI,0701JD,067,665,28-Jan-2007 7:49:39 PM,28-Jan-2007 11:49:39 AM,35.08232,-120.77918,076.7 049.0,076.7,049.0,37.000,37.273,12.5037,12.5080,33.6138,33.6125,33.6108,33.6109,4.25175,5.15,5.15,0.1386,0.37,0.57,0.7688,12.07,8.673,25.4173,25.4141,0.5160,87.8967,3.9079e+00,1.3346e+01,,,,,,,
CalCOFI,0701JD,067,665,28-Jan-2007 7:49:40 PM,28-Jan-2007 11:49:40 AM,35.08232,-120.77918,076.7 049.0,076.7,049.0,36.000,36.265,12.5623,12.5643,33.6095,33.6082,33.6070,33.6071,4.30629,5.22,5.21,0.1521,0.41,0.52,0.7741,12.23,8.821,25.4026,25.4002,0.5044,88.1528,4.4652e+00,1.4382e+01,,,,,,,
CalCOFI,0701JD,067,665,28-Jan-2007 7:49:41 PM,28-Jan-2007 11:49:41 AM,35.08232,-120.77918,076.7 049.0,076.7,049.0,35.000,35.258,12.5850,12.5857,33.6075,33.6062,33.6057,33.6058,4.36282,5.28,5.28,0.1355,0.36,0.59,0.7060,10.23,6.922,25.3966,25.3951,0.5025,88.1948,4.2076e+00,1.5551e+01,,,,,,,
CalCOFI,0701JD,067,665,28-Jan-2007 7:49:42 PM,28-Jan-2007 11:49:42 AM,35.08232,-120.77918,076.7 049.0,076.7,049.0,34.000,34.250,12.6247,12.6228,33.6042,33.6029,33.6019,33.6020,4.40300,5.33,5.33,0.1375,0.36,0.58,0.7214,10.68,7.351,25.3863,25.3848,0.4997,88.2558,3.8487e+00,1.7009e+01,,,,,,,
CalCOFI,0701JD,067,665,28-Jan-2007 7:49:43 PM,28-Jan-2007 11:49:43 AM,35.08232,-120.77918,076.7 049.0,076.7,049.0,33.000,33.243,12.6550,12.6564,33.6003,33.5990,33.5987,33.5988,4.44323,5.38,5.38,0.1515,0.41,0.52,0.7001,10.06,6.757,25.3773,25.3758,0.4964,88.3299,3.9858e+00,1.8766e+01,,,,,,,
CalCOFI,0701JD,067,665,28-Jan-2007 7:49:45 PM,28-Jan-2007 11:49:45 AM,35.08232,-120.77918,076.7 049.0,076.7,049.0,32.000,32.235,12.6777,12.6755,33.5972,33.5959,33.5962,33.5963,4.48931,5.44,5.44,0.1724,0.47,0.63,0.6597,8.87,5.630,25.3704,25.3701,0.4991,88.2703,4.1695e+00,2.1003e+01,,,,,,,
CalCOFI,0701JD,067,665,28-Jan-2007 7:49:47 PM,28-Jan-2007 11:49:47 AM,35.08232,-120.77918,076.7 049.0,076.7,049.0,31.000,31.228,12.6951,12.7001,33.5954,33.5941,33.5927,33.5928,4.57030,5.54,5.54,0.1614,0.44,0.54,0.6536,8.69,5.460,25.3656,25.3626,0.4974,88.3077,4.1413e+00,2.3316e+01,,,,,,,
CalCOFI,0701JD,067,665,28-Jan-2007 7:49:49 PM,28-Jan-2007 11:49:49 AM,35.08232,-120.77918,076.7 049.0,076.7,049.0,30.000,30.221,12.7541,12.7612,33.5875,33.5862,33.5848,33.5849,4.61900,5.60,5.60,0.1527,0.41,0.52,0.6413,8.33,5.117,25.3480,25.3445,0.5007,88.2344,4.5936e+00,2.6454e+01,,,,,,,
CalCOFI,0701JD,067,665,28-Jan-2007 7:50:18 PM,28-Jan-2007 11:50:18 AM,35.08232,-120.77918,076.7 049.0,076.7,049.0,29.000,29.213,12.8073,12.8188,33.5808,33.5795,33.5781,33.5782,4.67630,5.67,5.67,0.1788,0.49,0.70,0.6169,7.62,4.436,25.3323,25.3280,0.5021,88.2043,4.2357e+00,2.6306e+01,29,12.83 ,33.581, 5.74,.86,.32,3.9
CalCOFI,0701JD,067,665,28-Jan-2007 7:50:59 PM,28-Jan-2007 11:50:59 AM,35.08232,-120.77918,076.7 049.0,076.7,049.0,28.000,28.206,12.8520,12.8555,33.5778,33.5765,33.5763,33.5764,4.78134,5.79,5.80,0.2676,0.78,3.97,0.6002,7.13,3.971,25.3212,25.3193,0.5020,88.2053,4.3202e+00,2.4070e+01,,,,,,,
CalCOFI,0701JD,067,665,28-Jan-2007 7:51:00 PM,28-Jan-2007 11:51:00 AM,35.08232,-120.77918,076.7 049.0,076.7,049.0,27.000,27.198,12.8743,12.8759,33.5772,33.5759,33.5756,33.5757,4.81050,5.83,5.84,0.1643,0.45,0.56,0.5925,6.90,3.756,25.3163,25.3147,0.5049,88.1423,4.1877e+00,2.6339e+01,,,,,,,
CalCOFI,0701JD,067,665,28-Jan-2007 7:51:01 PM,28-Jan-2007 11:51:01 AM,35.08232,-120.77918,076.7 049.0,076.7,049.0,26.000,26.191,12.8877,12.8886,33.5709,33.5696,33.5698,33.5699,4.84634,5.87,5.88,0.1873,0.52,0.84,0.6055,7.28,4.119,25.3088,25.3077,0.5046,88.1474,4.6658e+00,2.8625e+01,,,,,,,
CalCOFI,0701JD,067,665,28-Jan-2007 7:51:02 PM,28-Jan-2007 11:51:02 AM,35.08232,-120.77918,076.7 049.0,076.7,049.0,25.000,25.184,12.8869,12.8873,33.5623,33.5610,33.5615,33.5616,4.88072,5.92,5.92,0.1948,0.54,0.99,0.5914,6.87,3.725,25.3022,25.3015,0.5020,88.2052,4.0793e+00,3.1214e+01,,,,,,,
CalCOFI,0701JD,067,665,28-Jan-2007 7:51:03 PM,28-Jan-2007 11:51:03 AM,35.08232,-120.77918,076.7 049.0,076.7,049.0,24.000,24.176,12.8876,12.8882,33.5600,33.5587,33.5590,33.5591,4.89373,5.93,5.94,0.1827,0.50,0.76,0.5830,6.62,3.491,25.3003,25.2994,0.5029,88.1851,4.6091e+00,3.4022e+01,,,,,,,
CalCOFI,0701JD,067,665,28-Jan-2007 7:51:05 PM,28-Jan-2007 11:51:05 AM,35.08232,-120.77918,076.7 049.0,076.7,049.0,23.000,23.169,12.8906,12.8909,33.5596,33.5583,33.5584,33.5585,4.91279,5.95,5.96,0.1652,0.45,0.56,0.5691,6.21,3.103,25.2993,25.2983,0.5007,88.2336,4.2941e+00,3.6824e+01,,,,,,,
CalCOFI,0701JD,067,665,28-Jan-2007 7:51:08 PM,28-Jan-2007 11:51:08 AM,35.08232,-120.77918,076.7 049.0,076.7,049.0,22.000,22.161,12.8914,12.8924,33.5595,33.5582,33.5583,33.5584,4.91357,5.96,5.96,0.1900,0.53,0.89,0.5504,5.66,2.582,25.2991,25.2980,0.5067,88.1031,4.1278e+00,3.9930e+01,22,12.89 ,33.563, 5.97,.83,.23,2.4
CalCOFI,0701JD,067,665,28-Jan-2007 7:51:56 PM,28-Jan-2007 11:51:56 AM,35.08232,-120.77918,076.7 049.0,076.7,049.0,21.000,21.154,12.8897,12.8898,33.5599,33.5586,33.5590,33.5591,4.92551,5.97,5.98,0.1499,0.40,0.52,0.5373,5.28,2.216,25.2997,25.2990,0.5024,88.1959,3.7526e+00,4.2060e+01,,,,,,,
CalCOFI,0701JD,067,665,28-Jan-2007 7:52:04 PM,28-Jan-2007 11:52:04 AM,35.08232,-120.77918,076.7 049.0,076.7,049.0,20.000,20.147,12.8921,12.8926,33.5581,33.5568,33.5568,33.5569,4.93931,5.99,6.00,0.1435,0.38,0.54,0.5539,5.77,2.679,25.2978,25.2967,0.5034,88.1749,4.4606e+00,4.5728e+01,,,,,,,
CalCOFI,0701JD,067,665,28-Jan-2007 7:52:05 PM,28-Jan-2007 11:52:05 AM,35.08232,-120.77918,076.7 049.0,076.7,049.0,19.000,19.139,12.8934,12.8940,33.5580,33.5567,33.5569,33.5570,4.94480,5.99,6.00,0.1782,0.49,0.70,0.5577,5.88,2.785,25.2974,25.2965,0.5038,88.1650,4.1826e+00,4.9639e+01,,,,,,,
CalCOFI,0701JD,067,665,28-Jan-2007 7:52:06 PM,28-Jan-2007 11:52:06 AM,35.08232,-120.77918,076.7 049.0,076.7,049.0,18.000,18.132,12.8951,12.8953,33.5577,33.5564,33.5567,33.5568,4.94686,6.00,6.01,0.1362,0.36,0.59,0.5479,5.59,2.512,25.2969,25.2961,0.5049,88.1423,4.6502e+00,5.3469e+01,,,,,,,
CalCOFI,0701JD,067,665,28-Jan-2007 7:52:07 PM,28-Jan-2007 11:52:07 AM,35.08232,-120.77918,076.7 049.0,076.7,049.0,17.000,17.125,12.8956,12.8962,33.5574,33.5561,33.5565,33.5566,4.96067,6.01,6.02,0.1525,0.41,0.52,0.5321,5.13,2.071,25.2965,25.2957,0.5070,88.0963,4.5978e+00,5.9014e+01,,,,,,,
CalCOFI,0701JD,067,665,28-Jan-2007 7:52:09 PM,28-Jan-2007 11:52:09 AM,35.08232,-120.77918,076.7 049.0,076.7,049.0,16.000,16.117,12.8963,12.8969,33.5574,33.5561,33.5564,33.5565,4.96482,6.02,6.03,0.1425,0.38,0.54,0.5253,4.93,1.882,25.2963,25.2955,0.5060,88.1168,4.3903e+00,6.5922e+01,,,,,,,
CalCOFI,0701JD,067,665,28-Jan-2007 7:52:12 PM,28-Jan-2007 11:52:12 AM,35.08232,-120.77918,076.7 049.0,076.7,049.0,15.000,15.110,12.8964,12.8974,33.5574,33.5561,33.5562,33.5563,4.96847,6.02,6.03,0.1610,0.44,0.54,0.5076,4.41,1.388,25.2963,25.2952,0.5036,88.1709,4.3355e+00,7.2655e+01,,,,,,,
CalCOFI,0701JD,067,665,28-Jan-2007 7:52:14 PM,28-Jan-2007 11:52:14 AM,35.08232,-120.77918,076.7 049.0,076.7,049.0,14.000,14.102,12.8992,12.9004,33.5575,33.5562,33.5564,33.5565,4.97071,6.03,6.03,0.1700,0.46,0.60,0.5313,5.10,2.049,25.2958,25.2947,0.5147,87.9272,4.3020e+00,8.0436e+01,14,12.90 ,33.559, 6.02,,,2.2
CalCOFI,0701JD,067,665,28-Jan-2007 7:52:52 PM,28-Jan-2007 11:52:52 AM,35.08232,-120.77910,076.7 049.0,076.7,049.0,13.000,13.095,12.9010,12.9015,33.5577,33.5564,33.5567,33.5568,4.97052,6.02,6.03,0.2068,0.58,1.29,0.5355,5.23,2.166,25.2956,25.2947,0.5177,87.8595,4.4175e+00,9.6862e+01,,,,,,,
CalCOFI,0701JD,067,665,28-Jan-2007 7:53:38 PM,28-Jan-2007 11:53:38 AM,35.08232,-120.77901,076.7 049.0,076.7,049.0,12.000,12.088,12.9047,12.9051,33.5580,33.5567,33.5568,33.5569,4.95767,6.01,6.02,0.1808,0.50,0.73,0.5423,5.43,2.356,25.2950,25.2940,0.5158,87.9023,4.7214e+00,1.1178e+02,,,,,,,
CalCOFI,0701JD,067,665,28-Jan-2007 7:53:44 PM,28-Jan-2007 11:53:44 AM,35.08232,-120.77900,076.7 049.0,076.7,049.0,11.000,11.080,12.9065,12.9081,33.5579,33.5566,33.5567,33.5568,4.96098,6.01,6.02,0.1853,0.51,0.80,0.5354,5.22,2.163,25.2946,25.2933,0.5194,87.8216,4.6771e+00,1.2759e+02,,,,,,,
CalCOFI,0701JD,067,665,28-Jan-2007 7:53:46 PM,28-Jan-2007 11:53:46 AM,35.08232,-120.77900,076.7 049.0,076.7,049.0,10.000,10.073,12.9099,12.9101,33.5581,33.5568,33.5569,33.5570,4.96712,6.02,6.03,0.1811,0.50,0.74,0.5077,4.41,1.391,25.2940,25.2931,0.5192,87.8278,4.6080e+00,1.4119e+02,,,,,,,
CalCOFI,0701JD,067,665,28-Jan-2007 7:53:48 PM,28-Jan-2007 11:53:48 AM,35.08232,-120.77900,076.7 049.0,076.7,049.0,9.000,9.066,12.9112,12.9109,33.5582,33.5569,33.5570,33.5571,4.96972,6.02,6.03,0.1823,0.50,0.75,0.5275,4.99,1.943,25.2939,25.2929,0.5161,87.8953,4.5949e+00,1.6296e+02,9,12.92 ,33.563, 5.99,.70,.22,2.2
CalCOFI,0701JD,067,665,28-Jan-2007 7:55:18 PM,28-Jan-2007 11:55:18 AM,35.08223,-120.77891,076.7 049.0,076.7,049.0,8.000,8.058,12.9150,12.9157,33.5584,33.5571,33.5572,33.5573,4.94092,5.99,6.00,0.1455,0.39,0.53,0.5238,4.88,1.840,25.2932,25.2922,0.5044,88.1516,4.5252e+00,1.5978e+02,,,,,,,
CalCOFI,0701JD,067,665,28-Jan-2007 7:55:52 PM,28-Jan-2007 11:55:52 AM,35.08232,-120.77884,076.7 049.0,076.7,049.0,7.000,7.051,12.9133,12.9135,33.5584,33.5571,33.5571,33.5572,4.95718,6.01,6.02,0.1607,0.43,0.54,0.5171,4.69,1.653,25.2935,25.2925,0.5126,87.9731,4.9615e+00,1.5519e+02,,,,,,,
CalCOFI,0701JD,067,665,28-Jan-2007 7:55:53 PM,28-Jan-2007 11:55:53 AM,35.08232,-120.77884,076.7 049.0,076.7,049.0,6.000,6.044,12.9147,12.9150,33.5585,33.5572,33.5573,33.5574,4.94968,6.00,6.01,0.1658,0.45,0.57,0.5456,5.52,2.448,25.2933,25.2923,0.5148,87.9236,4.9600e+00,1.8135e+02,,,,,,,
CalCOFI,0701JD,067,665,28-Jan-2007 7:55:56 PM,28-Jan-2007 11:55:56 AM,35.08232,-120.77884,076.7 049.0,076.7,049.0,5.000,5.036,12.9162,12.9166,33.5586,33.5573,33.5573,33.5574,4.95140,6.00,6.01,0.1869,0.52,0.83,0.5368,5.26,2.202,25.2931,25.2920,0.5108,88.0120,4.2749e+00,1.9980e+02,,,,,,,
CalCOFI,0701JD,067,665,28-Jan-2007 7:55:57 PM,28-Jan-2007 11:55:57 AM,35.08232,-120.77884,076.7 049.0,076.7,049.0,4.000,4.029,12.9172,12.9175,33.5587,33.5574,33.5573,33.5574,4.94774,6.00,6.01,0.1666,0.45,0.57,0.5175,4.70,1.664,25.2929,25.2917,0.5021,88.2026,4.8920e+00,2.4058e+02,,,,,,,
CalCOFI,0701JD,067,665,28-Jan-2007 7:55:59 PM,28-Jan-2007 11:55:59 AM,35.08232,-120.77884,076.7 049.0,076.7,049.0,3.000,3.022,12.9183,12.9190,33.5587,33.5574,33.5574,33.5575,4.94774,6.00,6.01,0.1263,0.33,0.69,0.5387,5.32,2.255,25.2926,25.2915,0.5020,88.2066,4.4169e+00,2.8136e+02,,,,,,,
CalCOFI,0701JD,067,665,28-Jan-2007 7:56:01 PM,28-Jan-2007 11:56:01 AM,35.08232,-120.77884,076.7 049.0,076.7,049.0,2.000,2.015,12.9242,12.9260,33.5590,33.5577,33.5574,33.5575,4.95193,6.00,6.01,0.1290,0.34,0.66,0.5329,5.15,2.094,25.2917,25.2901,0.5010,88.2269,4.4216e+00,3.4014e+02,2,12.93 ,33.558, 6.01,.81,.27,2.2
CalCOFI,0701JD,067,665,28-Jan-2007 7:57:25 PM,28-Jan-2007 11:57:25 AM,35.08232,-120.77884,076.7 049.0,076.7,049.0,1.000,1.007,12.9418,12.9423,33.5575,33.5562,33.5559,33.5560,4.86887,5.90,5.91,0.1775,0.49,0.69,0.5353,5.22,2.160,25.2870,25.2857,0.4942,88.3782,5.1297e+00,3.9334e+02,,,,,,,
